Regional Weather Roundup
Issued by NWS Sioux Falls, SD

Home | Current Version | Previous Version | Graphics & Text | Print | Product List | Glossary Off
Versions: 1 2 3 4 5 6 7 8 9 10 11 12 13 14 15 16 17 18 19 20 21 22 23 24 25 26 27 28 29 30 31 32 33 34 35 36 37 38 39 40 41 42 43 44 45 46 47 48 49 50

000
ASUS43 KFSD 251602
RWRFSD

WEATHER ROUNDUP FOR SE SOUTH DAKOTA/SW MINNESOTA/NW IOWA
NATIONAL WEATHER SERVICE SIOUX FALLS SD
1100 AM CDT SUN JUN 25 2017

NOTE: "FAIR" INDICATES FEW OR NO CLOUDS BELOW 12,000 FEET WITH NO
SIGNIFICANT WEATHER AND OR OBSTRUCTIONS TO VISIBILITY.


SDZ038>040-050-052>070-251700-
SOUTHEAST SOUTH DAKOTA

CITY           SKY/WX    TMP DP  RH WIND       PRES   REMARKS
BROOKINGS      MOSUNNY   61  45  55 NW14G24   30.29S
CHAMBERLAIN    SUNNY     67  38  34 NW5       30.33S
HURON          SUNNY     63  42  46 NW7       30.31F
MADISON        FAIR      59  41  51 NW15G21   30.30F
MITCHELL       NOT AVBL
SIOUX FALLS    MOSUNNY   63  45  51 NW18G26   30.29F
WINNER         FAIR      69  34  27 N6        30.33F
YANKTON        SUNNY     64  39  39 NW16G23   30.32F
$$

MNZ071-072-080-081-089-090-097-098-251700-
SOUTHWEST MINNESOTA

CITY           SKY/WX    TMP DP  RH WIND       PRES   REMARKS
FAIRMONT       SUNNY     61  42  49 NW17G33   30.23R
JACKSON        SUNNY     61  41  48 NW20G26   30.25S
MARSHALL       PTSUNNY   61  43  51 NW21G28   30.25S
MONTEVIDEO     SUNNY     63  43  48 N18G24    30.24S
PIPESTONE      MOSUNNY   61  43  51 N13G22    30.27F
REDWOOD FALLS  SUNNY     62  40  44 NW16G26   30.22F
TRACY          MOSUNNY   62  44  53 NW20G25   30.26S
WINDOM         SUNNY     61  43  51 NW18G25   30.25R
WORTHINGTON    PTSUNNY   60  43  53 NW17G24   30.27S
$$

IAZ001>003-012>014-020>022-031-032-NEZ013-014-SDZ071-251700-
NORTHWEST IOWA

CITY           SKY/WX    TMP DP  RH WIND       PRES   REMARKS
CHEROKEE       PTSUNNY   64  46  53 NW13G22   30.29R
DENISON        MOSUNNY   64  41  42 NW16G23   30.31S
ESTHERVILLE    MOSUNNY   61  44  53 NW20G28   30.25R
LE MARS        MOSUNNY   64  43  45 NW17G24   30.31S
ORANGE CITY    MOSUNNY   63  46  55 NW17G25   30.30R
SHELDON        PTSUNNY   61  43  51 NW17      30.27S
SIOUX CITY     MOSUNNY   66  44  45 NW15G24   30.31S
SPENCER        MOSUNNY   64  42  44 NW21G28   30.26S
STORM LAKE       N/A     63  41  45 NW20G28   30.28S
$$

ABBREVIATIONS USED IN REMARKS
   TC - TEMPERATURE IN CELSIUS
  WCI - WIND CHILL INDEX
   HX - HEAT INDEX
  VSB - VISIBILITY





USA.gov is the U.S. government's official web portal to all federal, state and local government web resources and services.